Cincinnati, OH

12:45 AM EST on December 18, 2017 (GMT -0500)
Cincinnati Municipal-Lunken

Weather History for KLUK - March, 2013

Change the Weather History Date:

Wednesday, March 20, 2013

  Actual Average Record
Temperature  
Mean Temperature 32 °F -  
Max Temperature 39 °F 56 °F 84 °F (2012)
Min Temperature 26 °F 36 °F 19 °F (1965)
Degree Days  
Heating Degree Days 32    
Moisture  
Dew Point 16 °F    
Average Humidity 51    
Maximum Humidity 78    
Minimum Humidity 36    
Precipitation  
Precipitation 0.00 in - - ()
Sea Level Pressure  
Sea Level Pressure 30.06 in    
Wind  
Wind Speed 9 mph (West)    
Max Wind Speed 20 mph    
Max Gust Speed 29 mph    
Visibility 10 miles    
Events      
Averages and records for this station are not official NWS values.
T = Trace of Precipitation, MM = Missing Value Source: NWS Daily Summary

Daily Weather History Graph

Daily Weather History Graph

Search for Another Location

Airport or City:

Trip Planner

Search our weather history database for the weather conditions in past years. The results will help you decide how hot, cold, wet, or windy it might be!

Date:

Astronomy

Mar. 20, 2013 Rise Set
Actual Time 7:40 AM EDT 7:49 PM EDT
Civil Twilight 7:14 AM EDT 8:16 PM EDT
Nautical Twilight 6:42 AM EDT 8:47 PM EDT
Astronomical Twilight 6:11 AM EDT 9:19 PM EDT
Moon 1:26 PM EDT (3/20) 3:17 AM EDT (3/20)
Length of Visible Light 13h 02m
Length of Day
12h 09m
First Quarter, 59% of the Moon is Illuminated
Mar 20
First Quarter
Mar 27
Full
Apr 3
Last Quarter
Apr 10
New
Apr 18
First Quarter

Hourly Weather History & Observations

Time (EDT) Temp. Windchill Dew Point Humidity Pressure Visibility Wind Dir Wind Speed Gust Speed Precip Events Conditions
12:53 AM 35.1 °F 27.9 °F 18.0 °F 50% 30.14 in 10.0 mi WSW 9.2 mph - N/A   Clear
1:53 AM 33.1 °F 26.9 °F 18.0 °F 54% 30.13 in 10.0 mi WSW 6.9 mph - N/A   Clear
2:53 AM 35.1 °F 27.9 °F 19.0 °F 52% 30.12 in 10.0 mi WSW 9.2 mph - N/A   Clear
3:53 AM 33.1 °F 27.7 °F 18.0 °F 54% 30.11 in 10.0 mi West 5.8 mph - N/A   Clear
4:53 AM 32.0 °F 28.7 °F 18.0 °F 56% 30.09 in 10.0 mi West 3.5 mph - N/A   Clear
5:53 AM 30.0 °F 26.5 °F 19.0 °F 64% 30.07 in 10.0 mi South 3.5 mph - N/A   Clear
6:53 AM 28.0 °F 24.2 °F 21.0 °F 75% 30.06 in 10.0 mi SSW 3.5 mph - N/A   Clear
7:53 AM 27.0 °F 18.7 °F 21.0 °F 78% 30.07 in 10.0 mi SW 8.1 mph - N/A   Clear
8:53 AM 32.0 °F 24.2 °F 21.9 °F 66% 30.08 in 10.0 mi WSW 9.2 mph - N/A   Clear
9:53 AM 35.1 °F 26.9 °F 19.9 °F 54% 30.07 in 10.0 mi West 11.5 mph - N/A   Clear
10:53 AM 37.0 °F 29.3 °F 18.0 °F 46% 30.06 in 10.0 mi West 11.5 mph 21.9 mph N/A   Partly Cloudy
11:53 AM 39.0 °F 30.6 °F 17.1 °F 41% 30.06 in 10.0 mi West 15.0 mph 23.0 mph N/A   Partly Cloudy
12:53 PM 37.0 °F 27.0 °F 17.1 °F 44% 30.05 in 10.0 mi West 18.4 mph 25.3 mph N/A   Scattered Clouds
1:53 PM 37.9 °F 29.6 °F 15.1 °F 39% 30.05 in 10.0 mi West 13.8 mph 25.3 mph N/A   Scattered Clouds
2:53 PM 37.0 °F 27.4 °F 15.1 °F 41% 30.02 in 10.0 mi WNW 17.3 mph 24.2 mph N/A   Mostly Cloudy
3:53 PM 37.0 °F 28.5 °F 14.0 °F 39% 30.00 in 10.0 mi WNW 13.8 mph 24.2 mph N/A   Mostly Cloudy
4:53 PM 37.9 °F 27.9 °F 12.9 °F 36% 29.99 in 10.0 mi West 19.6 mph 28.8 mph N/A   Mostly Cloudy
5:53 PM 35.1 °F 27.4 °F 12.0 °F 39% 29.99 in 10.0 mi NW 10.4 mph 27.6 mph N/A   Overcast
6:53 PM 33.1 °F 25.5 °F 10.9 °F 40% 30.01 in 10.0 mi WNW 9.2 mph 26.5 mph N/A   Overcast
7:53 PM 30.0 °F 19.5 °F 10.0 °F 43% 30.04 in 10.0 mi WNW 13.8 mph 21.9 mph N/A   Overcast
8:53 PM 28.0 °F 20.8 °F 10.9 °F 49% 30.06 in 10.0 mi NW 6.9 mph 21.9 mph N/A   Partly Cloudy
9:53 PM 26.1 °F 17.6 °F 12.0 °F 55% 30.06 in 10.0 mi NW 8.1 mph - N/A   Clear
10:53 PM 26.1 °F 19.4 °F 10.9 °F 53% 30.06 in 10.0 mi WNW 5.8 mph - N/A   Mostly Cloudy
11:53 PM 26.1 °F 17.6 °F 10.0 °F 51% 30.05 in 10.0 mi West 8.1 mph - N/A   Scattered Clouds